"Time","Temp","Dewpoint","Humidity","Pressure","Direction","Speed","Gust","Precip","PrecipRate"
"00:04:59","31.7","13.7","47","30.31","305","2.9","6","0.00","0.00"
"00:09:57","31.5","13.7","47.3","30.31","258","1.2","6","0.00","0.00"
"00:14:56","31.2","13.5","47.4","30.31","352","1","5.8","0.00","0.00"
"00:19:58","31.2","13.7","47.8","30.31","334","3.5","10.8","0.00","0.00"
"00:24:57","31.2","13.8","48","30.31","328","2.7","6","0.00","0.00"
"00:29:59","31.2","13.7","47.8","30.31","321","3.3","8.4","0.00","0.00"
"00:34:57","31.3","13.7","47.5","30.31","328","4.7","17.3","0.00","0.00"
"00:39:59","31.6","13.7","47","30.31","331","7.2","13.2","0.00","0.00"
"00:44:57","31.6","13.8","47.2","30.31","330","6.4","15.6","0.00","0.00"
"00:49:59","31.6","13.7","47","30.30","322","6.8","18.4","0.00","0.00"
"00:54:57","31.5","13.9","47.7","30.30","309","4.6","13.2","0.00","0.00"
"00:59:59","31.5","14","48","30.30","292","2.1","4.8","0.00","0.00"
"01:04:56","31.4","13.9","48","30.30","337","2.6","9.6","0.00","0.00"
"01:09:59","31.2","13.8","48","30.30","326","2.4","7.2","0.00","0.00"
"01:14:58","31","13.8","48.4","30.30","323","0.7","4.6","0.00","0.00"
"01:19:56","30.8","13.9","49","30.30","323","1.2","3.6","0.00","0.00"
"01:24:58","30.6","13.7","49.1","30.30","291","2.4","4.8","0.00","0.00"
"01:29:56","30.4","13.9","50","30.30","253","2.4","4.8","0.00","0.00"
"01:34:58","30.1","13.9","50.3","30.30","324","1.4","4.8","0.00","0.00"
"01:39:56","30","13.8","50.6","30.30","279","2","6","0.00","0.00"
"01:44:59","30.1","13.8","50.2","30.31","297","2.9","7.2","0.00","0.00"
"01:49:57","30.4","13.9","49.7","30.31","302","3.7","12","0.00","0.00"
"01:54:59","30.6","14","49.7","30.31","338","2.3","8.4","0.00","0.00"
"01:59:58","30.6","13.7","49.2","30.31","319","2.9","8.4","0.00","0.00"
"02:04:56","30.5","14","50","30.31","343","1.2","6","0.00","0.00"
"02:09:59","30.4","13.9","49.8","30.31","347","0.7","3.6","0.00","0.00"
"02:14:58","30.2","13.9","50.1","30.32","341","2.3","7.2","0.00","0.00"
"02:19:57","30","13.6","50","30.32","281","1","4.8","0.00","0.00"
"02:24:59","29.9","13.8","50.6","30.32","287","1.6","4.8","0.00","0.00"
"02:29:57","29.7","13.8","51","30.32","301","1.9","4.8","0.00","0.00"
"02:34:58","29.5","13.9","51.9","30.32","327","3.2","7.2","0.00","0.00"
"02:39:57","29.4","13.8","51.8","30.32","310","2.1","6.9","0.00","0.00"
"02:44:59","29.4","13.9","52","30.32","345","1","4.8","0.00","0.00"
"02:49:57","29.4","13.9","52","30.32","326","1.3","4.8","0.00","0.00"
"02:54:59","29.4","13.7","51.5","30.32","324","1.3","6","0.00","0.00"
"02:59:56","29.4","13.9","52","30.32","329","1.1","4.8","0.00","0.00"
"03:04:59","29.3","13.8","52","30.32","336","0.5","4.6","0.00","0.00"
"03:09:58","29.2","13.7","52","30.32","337","1.1","4.8","0.00","0.00"
"03:14:59","29.3","13.8","52","30.32","338","1.1","2.4","0.00","0.00"
"03:19:57","29.2","13.7","52","30.32","338","0","1.2","0.00","0.00"
"03:24:59","29","13.7","52.3","30.32","338","0","1.2","0.00","0.00"
"03:29:57","28.7","13.7","52.8","30.32","338","0.1","2.4","0.00","0.00"
"03:34:59","28.6","13.6","53","30.32","338","0","2.4","0.00","0.00"
"03:39:58","28.3","13.7","53.8","30.32","338","0.2","2.4","0.00","0.00"
"03:44:56","28","13.8","54.7","30.32","338","0","0","0.00","0.00"
"03:49:58","27.6","13.9","56.1","30.32","338","0.1","1.2","0.00","0.00"
"03:54:56","27.1","14.5","58.6","30.32","338","0","0","0.00","0.00"
"03:59:57","26.6","14.2","59","30.32","338","0","0","0.00","0.00"
"04:04:59","26.2","14.4","60.6","30.32","338","0.1","2.4","0.00","0.00"
"04:09:58","25.7","14.6","62.5","30.32","338","0","2.4","0.00","0.00"
"04:14:56","25.3","14.3","62.7","30.32","341","1.3","3.6","0.00","0.00"
"04:19:58","25.1","14.6","63.9","30.31","342","1.6","4.8","0.00","0.00"
"04:24:56","25.1","14.2","62.8","30.31","333","1.8","4.8","0.00","0.00"
"04:29:58","25.5","13.8","60.9","30.31","323","1.5","4.6","0.00","0.00"
"04:34:55","25.9","14.3","61","30.31","323","0.3","2.4","0.00","0.00"
"04:39:58","26","14","59.9","30.31","323","0.2","2.4","0.00","0.00"
"04:44:56","26","14","59.8","30.31","323","0.6","3.6","0.00","0.00"
"04:49:58","26","14.3","60.6","30.31","323","0.1","1.2","0.00","0.00"
"04:54:56","25.8","14.5","61.8","30.31","323","0.8","3.6","0.00","0.00"
"04:59:57","25.7","13.9","60.7","30.31","337","1.3","6","0.00","0.00"
"05:04:58","25.7","14.3","61.4","30.31","339","0.2","2.4","0.00","0.00"
"05:09:57","25.7","13.9","60.6","30.31","339","0.8","3.6","0.00","0.00"
"05:14:56","25.9","13.6","59.3","30.31","339","0.7","3.5","0.00","0.00"
"05:19:58","26.2","13.5","58.2","30.31","339","0.4","2.4","0.00","0.00"
"05:24:59","26.3","13.9","59.1","30.31","339","0.2","2.4","0.00","0.00"
"05:29:57","26.2","14.3","60.3","30.32","339","0.1","1.2","0.00","0.00"
"05:34:58","25.7","15.1","63.7","30.32","339","0.2","1.2","0.00","0.00"
"05:39:56","24.9","15.1","66","30.32","339","1","2.4","0.00","0.00"
"05:44:58","24.3","14.7","66.3","30.33","339","0.6","2.4","0.00","0.00"
"05:49:56","24","14.8","67.4","30.33","339","0.2","1.2","0.00","0.00"
"05:54:57","23.9","14.1","66","30.33","339","0","0","0.00","0.00"
"05:59:59","23.8","14.2","66.3","30.34","339","0","0","0.00","0.00"
"06:04:56","23.6","14.8","68.5","30.34","339","0","0","0.00","0.00"
"06:09:56","23.4","14.6","68.8","30.34","339","0","0","0.00","0.00"
"06:14:59","23.1","14.2","68.2","30.35","339","0","0","0.00","0.00"
"06:19:56","23","13.9","67.7","30.35","339","0","0","0.00","0.00"
"06:24:58","22.9","13.6","67.1","30.35","339","0","0","0.00","0.00"
"06:29:56","22.8","14.1","68.9","30.35","339","0","0","0.00","0.00"
"06:34:57","22.6","14","69","30.35","339","0","0","0.00","0.00"
"06:39:59","22.4","14","69.7","30.35","339","0","0","0.00","0.00"
"06:44:57","22.2","14.2","71.2","30.37","339","0","0","0.00","0.00"
"06:49:59","22","14.2","71.7","30.37","312","0","3.6","0.00","0.00"
"06:54:56","22","14","71.1","30.37","292","0.5","3.6","0.00","0.00"
"06:59:58","21.9","14","71.2","30.37","292","0","1.2","0.00","0.00"
"07:04:59","21.9","13.9","71","30.37","292","0","0","0.00","0.00"
"07:09:58","22","14.1","71.2","30.37","292","0","0","0.00","0.00"
"07:14:56","21.9","14.3","72","30.38","292","0","0","0.00","0.00"
"07:19:57","21.9","13.9","71","30.38","292","0","0","0.00","0.00"
"07:24:59","22.1","13.9","70.5","30.38","292","0","1.2","0.00","0.00"
"07:29:57","22.1","14.3","71.4","30.39","292","0","0","0.00","0.00"
"07:34:59","22.1","14.1","71","30.39","292","0","0","0.00","0.00"
"07:39:56","22.2","14.5","71.9","30.39","292","0","0","0.00","0.00"
"07:44:58","22.3","14.8","72.2","30.39","292","0","0","0.00","0.00"
"07:49:59","22.8","14.9","71.2","30.39","292","0","0","0.00","0.00"
"07:54:56","23.4","15.5","71.3","30.39","292","0","0","0.00","0.00"
"07:59:57","24.3","16","70.2","30.40","292","0","0","0.00","0.00"
"08:04:58","24.9","16.5","70","30.40","292","0","0","0.00","0.00"
"08:09:57","25.5","17.3","70.8","30.40","292","0","0","0.00","0.00"
"08:14:59","26.8","17.6","67.8","30.40","292","0","0","0.00","0.00"
"08:19:59","27.4","17.6","66.1","30.40","292","0","0","0.00","0.00"
"08:24:56","28.4","17.2","62.6","30.40","292","0","0","0.00","0.00"
"08:29:57","29.5","16.8","58.5","30.40","292","0","0","0.00","0.00"
"08:34:58","30.4","17.1","57.2","30.40","292","0","0","0.00","0.00"
"08:39:59","31.1","17.3","56.4","30.40","292","0","0","0.00","0.00"
"08:44:56","31.4","17.6","56.2","30.40","292","0","0","0.00","0.00"
"08:49:56","31.9","17.5","54.9","30.40","292","0","0","0.00","0.00"
"08:54:56","32.7","17.8","53.7","30.40","292","0","0","0.00","0.00"
"08:59:57","33.5","18.2","53","30.40","292","0.1","3.6","0.00","0.00"
"09:04:58","34.2","17.4","49.9","30.40","292","1.9","3.6","0.00","0.00"
"09:09:57","34.5","18","50.3","30.40","292","1","3.6","0.00","0.00"
"09:14:58","35.2","18.4","50","30.40","294","2","4.8","0.00","0.00"
"09:19:59","35.6","18.2","48.8","30.40","246","1.3","4.8","0.00","0.00"
"09:24:59","36.1","18.9","49.2","30.40","228","2.3","6","0.00","0.00"
"09:29:59","36.7","17.6","45.4","30.40","251","2.9","8.4","0.00","0.00"
"09:34:56","37.3","18","45.4","30.40","243","2.5","8.1","0.00","0.00"
"09:39:56","37.4","17.1","43.2","30.40","242","4.4","8.4","0.00","0.00"
"09:44:57","37.6","16.7","42.4","30.41","262","3.9","8.4","0.00","0.00"
"09:49:57","38.1","17.3","42.6","30.41","280","4.2","8.1","0.00","0.00"
"09:54:59","37.9","16.7","41.6","30.41","273","4.1","8.4","0.00","0.00"
"09:59:59","38.4","17.7","42.8","30.41","242","5.5","9.6","0.00","0.00"
"10:04:59","38.7","17.3","41.7","30.41","319","4.5","12","0.00","0.00"
"10:09:57","38.9","17","40.7","30.41","323","4.3","13.2","0.00","0.00"
"10:14:58","40","18.9","42.4","30.41","243","3.3","7.2","0.00","0.00"
"10:19:59","40","17.8","40.4","30.41","269","3.5","7.2","0.00","0.00"
"10:24:59","39.8","18.2","41.4","30.41","267","3.3","7.2","0.00","0.00"
"10:29:59","40.2","18.1","40.6","30.41","251","2.9","8.4","0.00","0.00"
"10:34:59","40.6","18.7","41","30.40","240","4.2","10.8","0.00","0.00"
"10:39:56","40.8","18","39.5","30.40","322","2.2","6","0.00","0.00"
"10:44:56","41.3","18.6","39.9","30.40","263","2.4","6","0.00","0.00"
"10:49:57","41.3","18","38.8","30.40","275","4.2","10.8","0.00","0.00"
"10:54:59","41.4","18.8","39.9","30.40","236","3.5","13.2","0.00","0.00"
"10:59:56","42.7","19.5","39.2","30.40","282","4.8","12.7","0.00","0.00"
"11:04:57","42.1","18","37.6","30.40","272","4.8","8.4","0.00","0.00"
"11:09:56","42.8","18.5","37.4","30.40","292","3.7","8.4","0.00","0.00"
"11:14:57","42.3","18.3","37.7","30.40","337","4.1","8.4","0.00","0.00"
"11:19:58","42","18","37.8","30.39","6","3","6","0.00","0.00"
"11:24:56","43","18.8","37.5","30.39","281","3.5","7.2","0.00","0.00"
"11:29:57","43.2","18.8","37.2","30.39","227","3.6","7.2","0.00","0.00"
"11:34:58","43.5","19.2","37.4","30.39","260","2.6","6.9","0.00","0.00"
"11:39:56","43.3","18.3","36.3","30.39","233","3.3","7.2","0.00","0.00"
"11:44:57","43.6","19.3","37.6","30.39","199","3.9","8.4","0.00","0.00"
"11:49:59","44.2","19.7","37.3","30.39","163","3.4","8.4","0.00","0.00"
"11:54:56","44.5","20.9","38.9","30.39","197","3.1","6","0.00","0.00"
"11:59:57","44.8","20.2","37.3","30.39","172","3.3","8.4","0.00","0.00"
"12:04:59","44.8","21.2","38.8","30.38","198","3.9","7.2","0.00","0.00"
"12:09:57","45.5","20.1","36.1","30.38","186","5.2","10.8","0.00","0.00"
"12:14:59","45.2","18.7","34.4","30.38","152","4.2","8.1","0.00","0.00"
"12:19:56","45.4","21.6","38.7","30.37","42","2.7","6.9","0.00","0.00"
"12:24:58","46.2","20.8","36.2","30.37","287","3.6","8.4","0.00","0.00"
"12:29:59","46.5","19.3","33.5","30.37","201","5","9.6","0.00","0.00"
"12:34:56","46.7","19.6","33.9","30.37","252","3.3","6","0.00","0.00"
"12:39:57","47.1","20.1","33.9","30.37","253","4.5","10.8","0.00","0.00"
"12:44:59","47.6","21.1","34.9","30.37","220","4.2","10.4","0.00","0.00"
"12:49:56","47.8","19.8","32.6","30.37","228","2.3","6","0.00","0.00"
"12:54:57","47.1","18.8","32.1","30.37","297","4.5","8.4","0.00","0.00"
"12:59:58","47","19.5","33.4","30.37","331","3.9","8.4","0.00","0.00"
"13:04:59","48.2","21.8","35","30.36","231","4.3","9.6","0.00","0.00"
"13:09:58","49.3","24.1","37.1","30.36","237","5.2","13.2","0.00","0.00"
"13:14:56","49.2","23.1","35.8","30.36","225","4","10.8","0.00","0.00"
"13:19:57","48.7","21.8","34.4","30.35","159","3.2","10.4","0.00","0.00"
"13:24:59","48.6","22.4","35.6","30.35","157","2.5","10.8","0.00","0.00"
"13:29:56","48.9","23.1","36.2","30.35","232","4.4","12","0.00","0.00"
"13:34:57","49.7","22.7","34.4","30.35","224","3.6","7.2","0.00","0.00"
"13:39:59","49.9","22.7","34.3","30.35","206","3.9","10.8","0.00","0.00"
"13:44:56","49.6","22.1","33.7","30.35","233","4.8","10.4","0.00","0.00"
"13:49:57","49.9","24.3","36.6","30.34","273","4.5","13.2","0.00","0.00"
"13:54:58","50.1","23.8","35.7","30.34","149","2.6","7.2","0.00","0.00"
"13:59:59","50.5","24.3","35.7","30.34","153","3.6","10.8","0.00","0.00"
"14:04:57","50.4","22.6","33.3","30.34","169","2.3","8.1","0.00","0.00"
"14:09:57","50.6","24.3","35.7","30.34","179","4.2","8.4","0.00","0.00"
"14:14:59","50.6","22.8","33.4","30.34","190","4.4","8.4","0.00","0.00"
"14:19:56","51.5","23.3","33","30.33","178","4.7","12","0.00","0.00"
"14:24:57","51.7","23.7","33.4","30.33","234","6.6","12","0.00","0.00"
"14:29:58","51.4","23.2","33","30.33","228","5.3","13.2","0.00","0.00"
"14:34:59","50.9","22.8","33.1","30.33","346","3.1","7.2","0.00","0.00"
"14:39:57","50.6","22.2","32.7","30.33","150","4.7","12","0.00","0.00"
"14:44:58","51","22.4","32.4","30.33","166","3.5","11.5","0.00","0.00"
"14:49:56","51.4","22.8","32.6","30.32","175","3.5","8.4","0.00","0.00"
"14:54:57","51.3","22.4","32.1","30.32","166","5.1","10.8","0.00","0.00"
"14:59:58","52.2","23.7","32.7","30.32","193","5.3","14.4","0.00","0.00"
"15:04:58","52.2","23.1","32","30.32","199","5.5","13.2","0.00","0.00"
"15:09:57","52.6","23.8","32.4","30.32","229","5.7","9.6","0.00","0.00"
"15:14:56","52.5","23","31.5","30.32","187","3.6","8.4","0.00","0.00"
"15:19:58","52.7","23.8","32.2","30.32","157","3.5","14.4","0.00","0.00"
"15:24:59","53","23.9","32","30.32","217","4.5","15","0.00","0.00"
"15:29:56","53","22.5","30.1","30.32","206","3.3","10.8","0.00","0.00"
"15:34:57","52.6","22.9","31.3","30.31","193","3.3","9.6","0.00","0.00"
"15:39:59","52.6","22.4","30.5","30.31","193","4.5","10.8","0.00","0.00"
"15:44:57","52.7","21.3","29","30.31","205","4.2","10.4","0.00","0.00"
"15:49:58","52.9","23","31","30.31","205","7.2","18.4","0.00","0.00"
"15:54:59","53.4","22.3","29.5","30.31","237","4.1","8.4","0.00","0.00"
"15:59:56","53.4","20.7","27.6","30.31","236","4.3","8.4","0.00","0.00"
"16:04:57","53.5","22.5","29.7","30.30","202","2.1","4.6","0.00","0.00"
"16:09:56","53.7","22.2","29.2","30.30","228","2.9","7.2","0.00","0.00"
"16:14:58","53.9","21.9","28.5","30.30","246","4.1","8.4","0.00","0.00"
"16:19:59","52.9","20.5","27.9","30.30","287","4.4","8.4","0.00","0.00"
"16:24:57","52.9","20.7","28.1","30.30","239","5.7","10.8","0.00","0.00"
"16:29:58","52.9","20.3","27.6","30.30","244","3.7","6.9","0.00","0.00"
"16:34:59","53.5","21.1","28","30.30","211","3.5","6","0.00","0.00"
"16:39:57","53.2","20.6","27.7","30.30","232","4.2","8.4","0.00","0.00"
"16:44:58","53.8","21.8","28.6","30.30","316","3","8.4","0.00","0.00"
"16:49:56","53.5","20.1","26.8","30.29","282","4.2","10.8","0.00","0.00"
"16:54:58","53.1","20.4","27.6","30.29","17","1.1","5.8","0.00","0.00"
"16:59:59","52.6","20.7","28.5","30.29","50","2.6","6","0.00","0.00"
"17:04:59","53","20.9","28.2","30.29","0","4","9.6","0.00","0.00"
"17:09:58","53.1","19.8","26.8","30.29","288","4.2","10.8","0.00","0.00"
"17:14:56","53.6","21.2","28","30.29","231","2.1","4.8","0.00","0.00"
"17:19:57","53.6","20.1","26.6","30.29","279","4.4","9.6","0.00","0.00"
"17:24:59","53.2","19.3","26.2","30.29","290","3.3","6","0.00","0.00"
"17:29:56","53.4","20.2","27","30.29","320","2.6","7.2","0.00","0.00"
"17:34:57","53.6","20.8","27.5","30.28","239","3.8","8.4","0.00","0.00"
"17:39:59","53.7","21.6","28.4","30.28","213","4","9.6","0.00","0.00"
"17:44:56","53.4","20.8","27.6","30.28","211","3.7","8.1","0.00","0.00"
"17:49:57","53.4","21","28","30.28","196","3.7","6","0.00","0.00"
"17:54:59","53.6","20.7","27.4","30.28","223","2.3","4.8","0.00","0.00"
"17:59:56","53.4","20.1","26.9","30.28","255","2.6","4.8","0.00","0.00"
"18:04:57","53.4","19.7","26.5","30.27","280","2.7","7.2","0.00","0.00"
"18:09:56","53.5","20.3","27","30.27","202","2.3","4.8","0.00","0.00"
"18:14:58","53.5","20.4","27.1","30.28","200","1.8","3.6","0.00","0.00"
"18:19:59","53.3","20.6","27.6","30.28","200","1.9","4.8","0.00","0.00"
"18:24:57","53.2","20.4","27.5","30.28","200","1.8","4.8","0.00","0.00"
"18:29:58","52.9","19.2","26.4","30.28","200","1.4","3.6","0.00","0.00"
"18:34:59","52.5","19.8","27.4","30.28","200","0.8","2.4","0.00","0.00"
"18:39:57","52","19.3","27.3","30.28","200","1.4","3.6","0.00","0.00"
"18:44:59","51.5","19.6","28.1","30.29","140","1","2.4","0.00","0.00"
"18:49:56","51","19.8","29","30.29","104","2.1","3.6","0.00","0.00"
"18:54:58","50.5","19.2","28.8","30.29","180","3.3","6","0.00","0.00"
"18:59:56","50","19.2","29.3","30.29","145","1.6","4.8","0.00","0.00"
"19:04:57","49.7","19.4","29.9","30.29","136","1.4","3.6","0.00","0.00"
"19:09:56","49.4","19","29.8","30.29","150","1.3","4.8","0.00","0.00"
"19:14:59","49.2","18.4","29.2","30.29","153","2.2","6","0.00","0.00"
"19:19:56","49","18.1","29","30.29","154","2.1","4.8","0.00","0.00"
"19:24:58","48.8","18.2","29.3","30.29","156","1.4","3.6","0.00","0.00"
"19:29:56","48.6","18.3","29.8","30.29","156","0.7","2.4","0.00","0.00"
"19:34:58","48.3","18.2","29.8","30.29","158","2","3.6","0.00","0.00"
"19:39:56","48.1","18.1","30","30.29","161","1.6","4.8","0.00","0.00"
"19:44:58","47.8","18.4","30.7","30.30","166","1.4","3.6","0.00","0.00"
"19:49:59","47.3","18.2","31","30.30","170","1.2","3.6","0.00","0.00"
"19:54:57","47","18.1","31.4","30.30","166","1.2","4.8","0.00","0.00"
"19:59:59","46.7","18.3","31.8","30.31","165","1.3","3.6","0.00","0.00"
"20:04:56","46.4","18.1","32","30.31","165","1","3.6","0.00","0.00"
"20:09:59","46.3","18.1","32.2","30.31","165","0.9","3.5","0.00","0.00"
"20:14:57","46","18.6","33.2","30.31","163","1.1","3.6","0.00","0.00"
"20:19:59","45.6","18.2","33.2","30.30","163","0","0","0.00","0.00"
"20:24:57","45.2","18.4","33.9","30.30","163","0","0","0.00","0.00"
"20:29:59","45","18.1","33.8","30.30","163","0","0","0.00","0.00"
"20:34:56","44.6","18.3","34.5","30.30","163","0","0","0.00","0.00"
"20:39:59","44.2","18.7","35.7","30.30","163","0","0","0.00","0.00"
"20:44:56","43.5","19.1","37.4","30.30","163","0","0","0.00","0.00"
"20:49:58","42.9","18","36.5","30.30","163","0","0","0.00","0.00"
"20:54:56","42.4","18","37.2","30.30","163","0","0","0.00","0.00"
"20:59:58","42","18","37.7","30.31","163","0","0","0.00","0.00"
"21:04:59","41.7","18.1","38.3","30.31","163","0","0","0.00","0.00"
"21:09:59","41.7","18.4","38.9","30.31","163","0","0","0.00","0.00"
"21:14:58","41.6","18.4","39.1","30.32","163","0","0","0.00","0.00"
"21:19:57","41.3","18.6","39.5","30.32","163","0","0","0.00","0.00"
"21:24:58","41","20.2","43","30.32","163","0","0","0.00","0.00"
"21:29:56","40.3","20.5","44.8","30.32","163","0","0","0.00","0.00"
"21:34:58","39.5","19.5","44.2","30.32","163","0","0","0.00","0.00"
"21:39:56","38.9","19.6","45.4","30.32","163","0","0","0.00","0.00"
"21:44:58","38.2","20","47.4","30.33","163","0","0","0.00","0.00"
"21:49:56","37.6","21.2","51.1","30.33","163","0","0","0.00","0.00"
"21:54:58","36.9","21.2","52.5","30.33","163","0","0","0.00","0.00"
"21:59:56","36.4","20.6","52.3","30.33","163","0","0","0.00","0.00"
"22:04:58","36.1","20.3","52.5","30.33","163","0","0","0.00","0.00"
"22:09:57","35.8","21.4","55.5","30.33","163","0","0","0.00","0.00"
"22:14:59","35.3","21.2","56.2","30.33","163","0","0","0.00","0.00"
"22:19:57","34.8","20","54.4","30.33","163","0","0","0.00","0.00"
"22:24:59","34.5","20.4","56","30.33","163","0","0","0.00","0.00"
"22:29:57","34.1","21","58.3","30.33","164","0","0","0.00","0.00"
"22:34:59","33.8","20.9","58.8","30.33","164","0","0","0.00","0.00"
"22:39:58","33.5","21.6","61.2","30.33","164","0","0","0.00","0.00"
"22:44:56","33.3","21.7","62","30.34","164","0","0","0.00","0.00"
"22:49:58","33.1","21.9","63.2","30.34","164","0","0","0.00","0.00"
"22:54:56","32.8","21.2","61.8","30.34","164","0","0","0.00","0.00"
"22:59:58","32.9","19.5","57.3","30.34","164","0","0","0.00","0.00"
"23:04:57","33.1","21","60.7","30.34","164","0","0","0.00","0.00"
"23:09:57","33","21.3","61.7","30.34","164","0","0","0.00","0.00"
"23:14:59","32.8","21.4","62.7","30.34","164","0","0","0.00","0.00"
"23:19:57","32.5","21.5","63.5","30.34","164","0","0","0.00","0.00"
"23:24:59","32.1","20.5","61.8","30.34","164","0","0","0.00","0.00"
"23:29:56","32","20.7","62.6","30.34","164","0","0","0.00","0.00"
"23:34:58","32.1","20.2","61","30.34","164","0","0","0.00","0.00"
"23:39:59","32.1","20.1","60.8","30.34","164","0","0","0.00","0.00"
"23:44:57","31.9","19.6","60","30.34","164","0","0","0.00","0.00"
"23:49:58","31.8","19.3","59.5","30.33","164","0","0","0.00","0.00"
"23:54:56","31.8","19.6","60.3","30.33","164","0","0","0.00","0.00"
